When you browse on this site, cookies collect data to enhance your experience and personalize the content and advertising you see.
Visit our Privacy Policy to learn more. By continuing to use the site, you agree to this use of cookies and data.
  • In Italy
  • List of Countries
  • For 7 days
  • Water Temperature
  • Satellite Maps
  • Weather Map
  • Weather Widgets
  • user-avatar
    Login

    Hourly Weather Fier

    Today, 18 January, Friday

    Time Temperature Precipitation Wind Pressure Humidity
    00:00 +5°C° 0 mm 4 mps 763 mmHg 74%
    01:00 +5°C° 0 mm 4 mps 763 mmHg 75%
    02:00 +5°C° 0 mm 4 mps 763 mmHg 77%
    03:00 +5°C° 0 mm 4 mps 762 mmHg 78%
    04:00 +5°C° 0 mm 4 mps 762 mmHg 79%
    05:00 +6°C° 0.1 mm 4 mps 762 mmHg 79%
    06:00 +6°C° 0.1 mm 4 mps 762 mmHg 79%
    07:00 +7°C° 0.1 mm 4 mps 761 mmHg 79%
    08:00 +7°C° 0.6 mm 4 mps 761 mmHg 81%
    09:00 +7°C° 0.6 mm 5 mps 761 mmHg 82%
    10:00 +8°C° 0.6 mm 5 mps 761 mmHg 83%
    11:00 +9°C° 0.1 mm 5 mps 761 mmHg 79%
    12:00 +12°C° 0.1 mm 5 mps 761 mmHg 74%
    13:00 +13°C° 0.1 mm 6 mps 761 mmHg 69%
    14:00 +13°C° 0.2 mm 5 mps 761 mmHg 71%
    15:00 +12°C° 0.2 mm 5 mps 761 mmHg 74%
    16:00 +12°C° 0.2 mm 5 mps 761 mmHg 76%
    17:00 +10°C° 0.1 mm 5 mps 761 mmHg 78%
    18:00 +9°C° 0.1 mm 5 mps 761 mmHg 80%
    19:00 +7°C° 0.1 mm 5 mps 761 mmHg 81%
    20:00 +7°C° 0.1 mm 4 mps 761 mmHg 81%
    21:00 +7°C° 0.1 mm 4 mps 761 mmHg 81%
    22:00 +7°C° 0.1 mm 4 mps 761 mmHg 81%
    23:00 +7°C° 0 mm 4 mps 761 mmHg 81%

    Tomorrow, 19 January, Saturday

    Time Temperature Precipitation Wind Pressure Humidity
    00:00 +7°C° 0 mm 4 mps 761 mmHg 82%
    01:00 +6°C° 0 mm 4 mps 761 mmHg 82%
    02:00 +6°C° 0 mm 4 mps 761 mmHg 82%
    03:00 +6°C° 0 mm 4 mps 761 mmHg 83%
    04:00 +6°C° 0 mm 4 mps 760 mmHg 83%
    05:00 +6°C° 0 mm 4 mps 761 mmHg 82%
    06:00 +6°C° 0 mm 4 mps 761 mmHg 82%
    07:00 +6°C° 0 mm 4 mps 761 mmHg 81%
    08:00 +8°C° 0 mm 4 mps 761 mmHg 76%
    09:00 +10°C° 0 mm 4 mps 761 mmHg 71%
    10:00 +12°C° 0 mm 3 mps 761 mmHg 65%
    11:00 +13°C° 0 mm 3 mps 761 mmHg 62%
    12:00 +14°C° 0 mm 3 mps 760 mmHg 58%
    13:00 +16°C° 0 mm 3 mps 760 mmHg 54%
    14:00 +14°C° 0.4 mm 3 mps 760 mmHg 59%
    15:00 +14°C° 0.4 mm 4 mps 760 mmHg 65%
    16:00 +13°C° 0.4 mm 4 mps 759 mmHg 70%
    17:00 +12°C° 0.2 mm 4 mps 760 mmHg 73%
    18:00 +11°C° 0.2 mm 4 mps 760 mmHg 76%
    19:00 +11°C° 0.2 mm 4 mps 760 mmHg 79%
    20:00 +10°C° 0.2 mm 4 mps 760 mmHg 79%
    21:00 +10°C° 0.2 mm 4 mps 760 mmHg 79%
    22:00 +10°C° 0.2 mm 4 mps 760 mmHg 79%
    23:00 +10°C° 0.3 mm 4 mps 760 mmHg 79%

    Day after tomorrow, 20 January, Sunday

    Time Temperature Precipitation Wind Pressure Humidity
    00:00 +8°C° 0.3 mm 4 mps 760 mmHg 79%
    01:00 +8°C° 0.3 mm 4 mps 760 mmHg 79%
    02:00 +8°C° 0.2 mm 4 mps 759 mmHg 78%
    03:00 +8°C° 0.2 mm 4 mps 759 mmHg 78%
    04:00 +8°C° 0.2 mm 4 mps 759 mmHg 77%
    05:00 +9°C° 0.2 mm 3 mps 759 mmHg 78%
    06:00 +9°C° 0.2 mm 3 mps 759 mmHg 78%
    07:00 +8°C° 0.2 mm 3 mps 760 mmHg 79%
    08:00 +10°C° 0.4 mm 3 mps 760 mmHg 76%
    09:00 +12°C° 0.4 mm 2 mps 760 mmHg 73%
    10:00 +13°C° 0.4 mm 2 mps 760 mmHg 70%
    11:00 +13°C° 0.6 mm 2 mps 760 mmHg 70%
    12:00 +14°C° 0.6 mm 2 mps 760 mmHg 70%
    13:00 +14°C° 0.6 mm 2 mps 759 mmHg 70%
    14:00 +13°C° 0.3 mm 2 mps 759 mmHg 72%
    15:00 +13°C° 0.3 mm 1 mps 759 mmHg 75%
    16:00 +13°C° 0.3 mm 1 mps 759 mmHg 78%
    17:00 +12°C° 0 mm 1 mps 760 mmHg 80%
    18:00 +11°C° 0 mm 1 mps 760 mmHg 83%
    19:00 +10°C° 0 mm 1 mps 760 mmHg 86%
    20:00 +10°C° 0 mm 1 mps 760 mmHg 86%
    21:00 +9°C° 0 mm 1 mps 761 mmHg 87%
    22:00 +9°C° 0 mm 1 mps 761 mmHg 87%
    23:00 +9°C° 0 mm 1 mps 761 mmHg 87%

    21 January, Monday

    Time Temperature Precipitation Wind Pressure Humidity
    00:00 +9°C° 0 mm 1 mps 761 mmHg 86%
    01:00 +7°C° 0 mm 2 mps 761 mmHg 86%
    02:00 +7°C° 0 mm 2 mps 761 mmHg 85%
    03:00 +7°C° 0 mm 2 mps 761 mmHg 84%
    04:00 +7°C° 0 mm 2 mps 761 mmHg 83%
    05:00 +7°C° 0 mm 2 mps 761 mmHg 82%
    06:00 +7°C° 0 mm 2 mps 761 mmHg 81%
    07:00 +6°C° 0 mm 2 mps 761 mmHg 80%
    08:00 +8°C° 0 mm 2 mps 762 mmHg 75%
    09:00 +10°C° 0 mm 2 mps 762 mmHg 69%
    10:00 +12°C° 0 mm 2 mps 762 mmHg 64%
    11:00 +13°C° 0 mm 2 mps 762 mmHg 60%
    12:00 +14°C° 0 mm 2 mps 761 mmHg 57%
    13:00 +15°C° 0 mm 2 mps 761 mmHg 53%
    14:00 +15°C° 0 mm 2 mps 761 mmHg 57%
    15:00 +14°C° 0 mm 2 mps 761 mmHg 60%
    16:00 +14°C° 0 mm 2 mps 761 mmHg 63%
    17:00 +13°C° 0.1 mm 2 mps 761 mmHg 66%
    18:00 +11°C° 0.1 mm 3 mps 761 mmHg 68%
    19:00 +10°C° 0.1 mm 3 mps 761 mmHg 71%
    20:00 +10°C° 0.1 mm 3 mps 761 mmHg 72%
    21:00 +10°C° 0.1 mm 3 mps 761 mmHg 72%
    22:00 +8°C° 0.1 mm 4 mps 761 mmHg 73%
    23:00 +8°C° 0 mm 4 mps 761 mmHg 72%

    22 January, Tuesday

    Time Temperature Precipitation Wind Pressure Humidity
    00:00 +8°C° 0 mm 4 mps 761 mmHg 72%
    01:00 +7°C° 0 mm 4 mps 760 mmHg 71%
    02:00 +7°C° 0 mm 4 mps 760 mmHg 71%
    03:00 +7°C° 0 mm 4 mps 759 mmHg 71%
    04:00 +7°C° 0 mm 4 mps 758 mmHg 71%
    05:00 +7°C° 0.3 mm 5 mps 758 mmHg 71%
    06:00 +7°C° 0.3 mm 5 mps 758 mmHg 71%
    07:00 +7°C° 0.3 mm 5 mps 757 mmHg 72%
    08:00 +8°C° 0.3 mm 5 mps 757 mmHg 70%
    09:00 +9°C° 0.3 mm 6 mps 757 mmHg 69%
    10:00 +9°C° 0.3 mm 6 mps 756 mmHg 67%
    11:00 +11°C° 0 mm 6 mps 755 mmHg 63%
    12:00 +12°C° 0 mm 7 mps 755 mmHg 59%
    13:00 +13°C° 0 mm 8 mps 754 mmHg 55%
    14:00 +12°C° 0.7 mm 7 mps 753 mmHg 62%
    15:00 +11°C° 0.7 mm 7 mps 753 mmHg 69%
    16:00 +10°C° 0.7 mm 6 mps 753 mmHg 75%
    17:00 +10°C° 1.2 mm 5 mps 753 mmHg 78%
    18:00 +9°C° 1.2 mm 5 mps 753 mmHg 81%
    19:00 +10°C° 1.2 mm 4 mps 753 mmHg 84%
    20:00 +8°C° 1 mm 4 mps 753 mmHg 84%
    21:00 +8°C° 1 mm 4 mps 753 mmHg 84%
    22:00 +8°C° 1 mm 4 mps 753 mmHg 83%
    23:00 +8°C° 0.4 mm 4 mps 753 mmHg 84%

    23 January, Wednesday

    Time Temperature Precipitation Wind Pressure Humidity
    00:00 +7°C° 0.4 mm 4 mps 753 mmHg 84%
    01:00 +7°C° 0.4 mm 5 mps 752 mmHg 84%
    02:00 +7°C° 0.5 mm 5 mps 752 mmHg 83%
    03:00 +7°C° 0.5 mm 5 mps 751 mmHg 82%
    04:00 +7°C° 0.5 mm 5 mps 751 mmHg 81%
    05:00 +6°C° 0.6 mm 5 mps 751 mmHg 81%
    06:00 +6°C° 0.6 mm 5 mps 751 mmHg 82%
    07:00 +6°C° 0.6 mm 5 mps 750 mmHg 82%
    08:00 +8°C° 0.3 mm 6 mps 750 mmHg 77%
    09:00 +9°C° 0.3 mm 6 mps 750 mmHg 71%
    10:00 +10°C° 0.3 mm 6 mps 750 mmHg 66%
    11:00 +11°C° 0.1 mm 7 mps 750 mmHg 63%
    12:00 +11°C° 0.1 mm 7 mps 749 mmHg 60%
    13:00 +12°C° 0.1 mm 8 mps 749 mmHg 57%
    14:00 +11°C° 0 mm 7 mps 748 mmHg 59%
    15:00 +11°C° 0 mm 6 mps 748 mmHg 61%
    16:00 +10°C° 0 mm 6 mps 747 mmHg 64%
    17:00 +9°C° 0.2 mm 6 mps 747 mmHg 67%
    18:00 +9°C° 0.2 mm 6 mps 747 mmHg 70%
    19:00 +8°C° 0.2 mm 6 mps 747 mmHg 73%
    20:00 +8°C° 0.4 mm 6 mps 746 mmHg 73%
    21:00 +7°C° 0.4 mm 6 mps 745 mmHg 73%
    22:00 +7°C° 0.4 mm 6 mps 745 mmHg 72%
    23:00 +7°C° 0.7 mm 6 mps 744 mmHg 73%
    Show more